Regional Weather Roundup
Issued by NWS Upton, NY

Home | Current Version | Previous Version | Text Only | Print | Product List | Glossary On
Versions: 1 2 3 4 5 6 7 8 9 10 11 12 13 14 15 16 17 18 19 20 21 22 23 24 25 26 27 28 29 30 31 32 33 34 35
000
ASUS41 KOKX 201908
RWROKX

REGIONAL WEATHER ROUNDUP
NATIONAL WEATHER SERVICE NEW YORK NY
200 PM EST MON NOV 20 2017

NOTE: "FAIR" INDICATES FEW OR NO CLOUDS BELOW 12,000 FEET WITH NO
SIGNIFICANT WEATHER AND/OR OBSTRUCTIONS TO VISIBILITY.

NYZ071-072-176-178-NJZ106-104-202000-
NEW YORK CITY METRO AREA

CITY           SKY/WX    TMP DP  RH WIND       PRES   REMARKS
Central Park   SUNNY     45  21  38 W8G23     30.05R
Bronx Bot Gard   N/A     46  21  36 W16       30.03R
LaGuardia APRT MOSUNNY   47  21  35 W20G29    30.02R
Kennedy INTL   MOSUNNY   47  22  37 W20G30    30.04R
Breezy Point     N/A     45 N/A N/A W12G21      N/A
Newark/Liberty MOSUNNY   48  22  35 W17G26    30.03S
Teterboro      SUNNY     46  23  40 W18G25    30.02R
$$

NYZ177-179-078>081-202000-
LONG ISLAND NEW YORK

CITY           SKY/WX    TMP DP  RH WIND       PRES   REMARKS
Jones Beach      N/A     45 N/A N/A W16G22      N/A
Matinecock PT    N/A     46 N/A N/A W22G32      N/A
Farmingdale    MOSUNNY   46  21  37 W14G22    30.02R
MacArthur/ISP  MOSUNNY   47  22  37 W10G24    30.00S
Shirley        MOSUNNY   46  24  42 W13G21    30.01S
Mt Sinai Harb    N/A    N/A N/A N/A W8G16       N/A
Westhampton    PTSUNNY   46  22  38 W20G26    30.01R
East Hampton   FAIR      43  24  46 W13G25    29.99R
Southold       NOT AVBL
Montauk          N/A     45  24  43 W15G24    29.99S
$$

NYZ052-065-067-202000-
HUDSON VALLEY

CITY           SKY/WX    TMP DP  RH WIND       PRES   REMARKS
White Plains   MOSUNNY   44  20  38 W17G30    29.99R
Larchmont Harb   N/A     45 N/A N/A W16G23      N/A
Croton On Huds   N/A     45 N/A N/A W18         N/A
Newburgh       MOSUNNY   43  25  49 NW17G29   29.98S
Montgomery     PTSUNNY   43  22  43 W7G24     29.98R
Poughkeepsie   MOSUNNY   43  21  41 W17G28    29.98R
Albany         PTSUNNY   41  20  43 W9        29.92F
$$

NJZ001-105-106-008-010-013-015-019>022-104-202000-
NEW JERSEY

CITY           SKY/WX    TMP DP  RH WIND       PRES   REMARKS
Newark/Liberty MOSUNNY   48  22  35 W17G26    30.03S
Teterboro      SUNNY     46  23  40 W18G25    30.02R
Caldwell       SUNNY     45  21  38 NW20G29   30.04R
Somerville     SUNNY     47  24  40 W10G20    30.04R
Linden         FAIR      47  22  37 NW13G18   30.04S
Perth Amboy      N/A     45 N/A N/A W20G26      N/A
Sussex         MOSUNNY   43  23  45 W12G20    30.01R
Andover        NOT AVBL
Trenton        SUNNY     46  24  42 W9        30.07S
Millville      SUNNY     48  25  40 W13G22    30.14R
Atlantic City  SUNNY     48  24  39 W17       30.12R
Wrightstown    SUNNY     47  23  39 W13G23    30.06S
Toms River     SUNNY     47  23  38 W16G23    30.09R
Belmar         SUNNY     45  22  40 W12G21    30.07R
$$

PAZ047>061-062-071-202000-
EASTERN PENNSYLVANIA

CITY           SKY/WX    TMP DP  RH WIND       PRES   REMARKS
Philadelphia   MOSUNNY   47  22  37 W22       30.12S
Allentown      SUNNY     46  24  42 W16G22    30.06R
Scranton       CLOUDY    40  25  55 SW14G22   30.02R WCI  32
$$

CTZ002-004>006-009-010-012-RIZ004-006-007-MAZ004-011-015-202000-
SOUTHERN NEW ENGLAND
 IN CT

CITY           SKY/WX    TMP DP  RH WIND       PRES   REMARKS
Bradley INTL   PTSUNNY   44  19  36 W14       29.94S
Hartford       CLOUDY    43  20  39 W10       29.96R
Danbury        MOSUNNY   42  21  43 W15G24    29.99R
Wtrbury/Oxford PTSUNNY   39  20  46 W12G17    29.96R WCI  32
Norwalk Harbor   N/A     43 N/A N/A W17G23      N/A
Bridgeport     MOSUNNY   46  20  35 W24G32    29.98S
Meriden        PTSUNNY   44  20  38 W12G18    29.97R
New Haven      PTSUNNY   45  22  40 NW8G20    29.98S
Chester        FAIR      45  19  36 W13G23    29.95S
Groton         MOSUNNY   44  19  36 W13G22    29.96S
Wilimantic     PTSUNNY   43  21  41 W8        29.95F

 IN RI

CITY           SKY/WX    TMP DP  RH WIND       PRES   REMARKS
Providence     NOT AVBL
Block Island   PTSUNNY   43  22  43 W9G20     29.97S
Westerly       MOSUNNY   44  19  36 VRB7      29.96F
 IN MA

CITY           SKY/WX    TMP DP  RH WIND       PRES   REMARKS
Boston         MOSUNNY   41  17  38 W20G31    29.90R
Worcester      PTSUNNY   35  17  47 W16G25    29.88R WCI  25
Westfield      MOSUNNY   43  20  39 W9G18     29.92F
Provincetown   MOSUNNY   41  18  39 W21G31    29.91R
Nantucket      CLOUDY    41  22  46 W17G26    29.95R
$$

ANZ330-335-338-340-345-350-353-355-202000-
COASTAL MARINE OBSERVATIONS


STATION/POSITION TIME  SKY/WX   TEMP    WIND        PRES    VSBY  WAVE
                                AIR SEA DIR/SP/G                  HT/PER
                 (UTC)          (F)     (DEG/KT/KT) (MB)    (MI)  (FT/S)
NY HARB ENTRANCE 1750            45 58  280/ 19/ 27 1016.3          3/ 4
20 S FIRE ISLAND 1750            44 57  290/ 21/ 25 1016.8          6/ 6
GREAT SOUTH BAY  1830            44 47  270/ 17/ 19   N/A
HUDSON CANYON    1750            45 59  290/ 23/ 29 1017.0          8/ 7
KINGS POINT      1830            45 51  320/ 18/ 21 1017.0
EXECUTION ROCKS  1830            48     260/ 17/ 23   N/A
WESTERN LI SOUND 1749            46     280/ 17/ 29   N/A           2/ 3
CENTRAL LI SOUND NOT AVBL
ROBBINS REEF     1836            45     270/ 23/ 25 1017.3
$$


>>>>>>>>>>>>>>>>>>>>>>>>>>>> KEY <<<<<<<<<<<<<<<<<<<<<<<<<<<
>                                                          <
>     SKY/WX - Sky Condition/Present Weather               <
>     TMP    - Temperature in Fahrenheit                   <
>     DP     - Dew Point in Fahrenheit                     <
>     RH     - Relative Humidity in Percent                <
>     WIND   - Direction (from) and Speed in MPH           <
>     PRES   - Mean Sea Level Pressure (inches of Hg)      <
>     WCI    - Wind Chill Index                            <
>     VSB    - VISIBILITY IN MILES                         <
>     HX     - HEAT INDEX                                  <
>     TC     - TEMPERATURE IN CELSIUS                      <
>     VRB    - VARIABLE WIND DIRECTION                     <
>                                                          <
>>>>>>>>>>>>>>>>>>>>>>>>>>>> KEY <<<<<<<<<<<<<<<<<<<<<<<<<<<




USA.gov is the U.S. government's official web portal to all federal, state and local government web resources and services.